| time (UTC) | temp F | wind direction | speed MPH | gust MPH | rain 1hr in | rain 24hr in | rain mn in | humidity % | barometer mb |
| 20260905023057 | 74 | 179 | 0.0 | 0.0 | 0.00 | 0.00 | 0.00 | 53 | 1004.0 |
| 20260905021557 | 75 | 179 | 0.0 | 2.0 | 0.00 | 0.00 | 0.00 | 51 | 1004.1 |
| 20260905020058 | 75 | 179 | 1.0 | 4.0 | 0.00 | 0.00 | 0.00 | 50 | 1004.1 |
| 20260905014557 | 77 | 172 | 3.0 | 5.0 | 0.00 | 0.00 | 0.00 | 46 | 1004.1 |
| 20260905013101 | 78 | 177 | 2.0 | 7.0 | 0.00 | 0.00 | 0.00 | 42 | 1004.1 |
| 20260905011555 | 79 | 180 | 3.0 | 8.0 | 0.00 | 0.00 | 0.00 | 37 | 1004.2 |
| 20260905010104 | 80 | 221 | 4.0 | 7.0 | 0.00 | 0.00 | 0.00 | 34 | 1004.3 |
| 20260905004556 | 80 | 186 | 3.0 | 7.0 | 0.00 | 0.00 | 0.00 | 34 | 1004.1 |
| 20260905003053 | 81 | 173 | 2.0 | 9.0 | 0.00 | 0.00 | 0.00 | 30 | 1004.2 |
| 20260905001551 | 82 | 191 | 2.0 | 10.0 | 0.00 | 0.00 | 0.00 | 35 | 1004.2 |
| 20260905000050 | 81 | 171 | 2.0 | 9.0 | 0.00 | 0.00 | 0.00 | 41 | 1004.1 |
| 20260904234550 | 81 | 168 | 3.0 | 9.0 | 0.00 | 0.00 | 0.00 | 41 | 1004.1 |
| 20260904233048 | 81 | 200 | 2.0 | 9.0 | 0.00 | 0.00 | 0.00 | 42 | 1004.2 |
| 20260904231602 | 81 | 172 | 3.0 | 10.0 | 0.00 | 0.00 | 0.00 | 45 | 1004.1 |
| 20260904230046 | 81 | 175 | 4.0 | 9.0 | 0.00 | 0.00 | 0.00 | 44 | 1004.3 |
| 20260904224546 | 82 | 153 | 2.0 | 9.0 | 0.00 | 0.00 | 0.00 | 42 | 1004.2 |
| 20260904223045 | 82 | 190 | 4.0 | 10.0 | 0.00 | 0.00 | 0.00 | 43 | 1004.2 |
| 20260904221547 | 82 | 172 | 3.0 | 10.0 | 0.00 | 0.00 | 0.00 | 43 | 1004.3 |
| 20260904220047 | 83 | 209 | 3.0 | 10.0 | 0.00 | 0.00 | 0.00 | 40 | 1004.3 |
| 20260904214542 | 83 | 188 | 4.0 | 8.0 | 0.00 | 0.00 | 0.00 | 38 | 1004.4 |
| 20260904213044 | 83 | 162 | 2.0 | 7.0 | 0.00 | 0.00 | 0.00 | 37 | 1004.4 |
| 20260904211538 | 83 | 173 | 1.0 | 11.0 | 0.00 | 0.00 | 0.00 | 37 | 1004.5 |
| 20260904210038 | 82 | 192 | 5.0 | 10.0 | 0.00 | 0.00 | 0.00 | 40 | 1004.5 |
| 20260904204534 | 81 | 202 | 1.0 | 9.0 | 0.00 | 0.00 | 0.00 | 43 | 1004.5 |
| 20260904203042 | 81 | 178 | 2.0 | 10.0 | 0.00 | 0.00 | 0.00 | 45 | 1004.6 |
| 20260904201530 | 80 | 178 | 1.0 | 8.0 | 0.00 | 0.00 | 0.00 | 47 | 1004.8 |
| 20260904200046 | 79 | 192 | 2.0 | 6.0 | 0.00 | 0.00 | 0.00 | 49 | 1005.0 |
| 20260904194532 | 79 | 200 | 3.0 | 8.0 | 0.00 | 0.00 | 0.00 | 49 | 1005.2 |
| 20260904193025 | 79 | 190 | 3.0 | 8.0 | 0.00 | 0.00 | 0.00 | 50 | 1005.3 |
| 20260904191523 | 77 | 190 | 3.0 | 8.0 | 0.00 | 0.00 | 0.00 | 53 | 1005.4 |
| 20260904190017 | 76 | 262 | 2.0 | 8.0 | 0.00 | 0.00 | 0.00 | 55 | 1005.6 |
| 20260904184514 | 76 | 212 | 3.0 | 8.0 | 0.00 | 0.00 | 0.00 | 55 | 1005.8 |
| 20260904183010 | 74 | 240 | 1.0 | 7.0 | 0.00 | 0.00 | 0.00 | 57 | 1005.9 |
| 20260904181506 | 73 | 184 | 3.0 | 8.0 | 0.00 | 0.00 | 0.00 | 59 | 1006.0 |
| 20260904180002 | 73 | 210 | 3.0 | 6.0 | 0.00 | 0.00 | 0.00 | 59 | 1006.1 |
| 20260904174559 | 71 | 204 | 2.0 | 5.0 | 0.00 | 0.00 | 0.00 | 64 | 1005.9 |
| 20260904173105 | 70 | 220 | 1.0 | 6.0 | 0.00 | 0.00 | 0.00 | 66 | 1006.0 |
| 20260904171552 | 69 | 193 | 2.0 | 6.0 | 0.00 | 0.00 | 0.00 | 69 | 1005.8 |
| 20260904170049 | 69 | 194 | 1.0 | 5.0 | 0.00 | 0.00 | 0.00 | 70 | 1005.7 |
| 20260904164544 | 67 | 194 | 2.0 | 5.0 | 0.00 | 0.00 | 0.00 | 71 | 1005.6 |
| 20260904163040 | 66 | 195 | 0.0 | 4.0 | 0.00 | 0.00 | 0.00 | 74 | 1005.6 |
| 20260904161537 | 65 | 229 | 1.0 | 4.0 | 0.00 | 0.00 | 0.00 | 77 | 1005.5 |
| 20260904160045 | 65 | 202 | 2.0 | 5.0 | 0.00 | 0.00 | 0.00 | 78 | 1005.4 |
| 20260904154532 | 64 | 184 | 1.0 | 3.0 | 0.00 | 0.00 | 0.00 | 80 | 1005.4 |
| 20260904153029 | 63 | 187 | 0.0 | 4.0 | 0.00 | 0.00 | 0.00 | 83 | 1005.4 |
| 20260904151525 | 62 | 165 | 0.0 | 3.0 | 0.00 | 0.00 | 0.00 | 85 | 1005.3 |
| 20260904150024 | 61 | 165 | 0.0 | 1.0 | 0.00 | 0.00 | 0.00 | 87 | 1005.3 |
| 20260904144520 | 60 | 165 | 0.0 | 2.0 | 0.00 | 0.00 | 0.00 | 88 | 1005.3 |
| 20260904143027 | 59 | 165 | 0.0 | 3.0 | 0.00 | 0.00 | 0.00 | 88 | 1005.0 |
| 20260904141515 | 59 | 167 | 0.0 | 0.0 | 0.00 | 0.00 | 0.00 | 87 | 1004.8 |
| 20260904140013 | 60 | 167 | 0.0 | 2.0 | 0.00 | 0.00 | 0.00 | 87 | 1004.6 |
| 20260904134516 | 60 | 167 | 0.0 | 2.0 | 0.00 | 0.00 | 0.00 | 87 | 1004.5 |
| 20260904133012 | 61 | 167 | 0.0 | 3.0 | 0.00 | 0.00 | 0.00 | 87 | 1004.6 |
| 20260904131508 | 61 | 167 | 0.0 | 0.0 | 0.00 | 0.00 | 0.00 | 87 | 1004.5 |
| 20260904130008 | 61 | 167 | 0.0 | 0.0 | 0.00 | 0.00 | 0.00 | 87 | 1004.5 |
| 20260904124508 | 61 | 167 | 0.0 | 0.0 | 0.00 | 0.00 | 0.00 | 87 | 1004.4 |
| 20260904123007 | 61 | 167 | 0.0 | 0.0 | 0.00 | 0.00 | 0.00 | 88 | 1004.3 |
| 20260904121506 | 60 | 167 | 0.0 | 1.0 | 0.00 | 0.00 | 0.00 | 88 | 1004.4 |
| 20260904120007 | 60 | 167 | 0.0 | 0.0 | 0.00 | 0.00 | 0.00 | 88 | 1004.4 |
| 20260904114508 | 59 | 167 | 0.0 | 0.0 | 0.00 | 0.00 | 0.00 | 88 | 1004.4 |
| 20260904113005 | 59 | 167 | 0.0 | 0.0 | 0.00 | 0.00 | 0.00 | 88 | 1004.3 |
| 20260904111503 | 59 | 167 | 0.0 | 0.0 | 0.00 | 0.00 | 0.00 | 88 | 1004.4 |
| 20260904110003 | 59 | 167 | 0.0 | 1.0 | 0.00 | 0.00 | 0.00 | 88 | 1004.4 |
| 20260904104502 | 58 | 167 | 0.0 | 2.0 | 0.00 | 0.00 | 0.00 | 88 | 1004.4 |
| 20260904103001 | 57 | 167 | 0.0 | 1.0 | 0.00 | 0.00 | 0.00 | 88 | 1004.4 |
| 20260904101601 | 57 | 167 | 1.0 | 3.0 | 0.00 | 0.00 | 0.00 | 88 | 1004.3 |
| 20260904100106 | 57 | 167 | 0.0 | 2.0 | 0.00 | 0.00 | 0.00 | 87 | 1004.2 |
| 20260904094604 | 58 | 167 | 1.0 | 3.0 | 0.00 | 0.00 | 0.00 | 88 | 1004.2 |
| 20260904093056 | 58 | 167 | 1.0 | 3.0 | 0.00 | 0.00 | 0.00 | 87 | 1004.1 |
| 20260904091554 | 58 | 167 | 1.0 | 3.0 | 0.00 | 0.00 | 0.00 | 87 | 1004.1 |
| 20260904090104 | 58 | 167 | 0.0 | 2.0 | 0.00 | 0.00 | 0.00 | 86 | 1004.1 |
| 20260904084557 | 58 | 167 | 2.0 | 3.0 | 0.00 | 0.00 | 0.00 | 86 | 1004.2 |
| 20260904083125 | 59 | 167 | 3.0 | 4.0 | 0.00 | 0.00 | 0.00 | 85 | 1004.3 |
| 20260904081548 | 59 | 169 | 1.0 | 2.0 | 0.00 | 0.00 | 0.00 | 84 | 1004.4 |
| 20260904080045 | 60 | 169 | 1.0 | 3.0 | 0.00 | 0.00 | 0.00 | 85 | 1004.6 |
| 20260904074543 | 60 | 175 | 1.0 | 2.0 | 0.00 | 0.00 | 0.00 | 83 | 1004.5 |
| 20260904073042 | 60 | 175 | 1.0 | 2.0 | 0.00 | 0.00 | 0.00 | 83 | 1004.4 |
| 20260904071555 | 60 | 175 | 0.0 | 2.0 | 0.00 | 0.00 | 0.00 | 82 | 1004.4 |
| 20260904070107 | 60 | 175 | 2.0 | 3.0 | 0.00 | 0.00 | 0.00 | 83 | 1004.3 |
| 20260904064538 | 60 | 176 | 1.0 | 2.0 | 0.00 | 0.00 | 0.00 | 82 | 1004.3 |
| 20260904063042 | 61 | 176 | 1.0 | 3.0 | 0.00 | 0.00 | 0.00 | 82 | 1004.3 |
| 20260904061537 | 61 | 178 | 0.0 | 2.0 | 0.00 | 0.00 | 0.00 | 82 | 1004.1 |
| 20260904060037 | 61 | 178 | 1.0 | 3.0 | 0.00 | 0.00 | 0.00 | 82 | 1004.1 |
| 20260904054545 | 62 | 178 | 0.0 | 2.0 | 0.00 | 0.00 | 0.00 | 80 | 1004.2 |
| 20260904053048 | 62 | 178 | 1.0 | 3.0 | 0.00 | 0.00 | 0.00 | 80 | 1004.2 |
| 20260904051539 | 62 | 178 | 0.0 | 0.0 | 0.00 | 0.00 | 0.00 | 78 | 1004.1 |
| 20260904050037 | 63 | 178 | 0.0 | 0.0 | 0.00 | 0.00 | 0.00 | 78 | 1004.2 |
| 20260904044533 | 63 | 178 | 0.0 | 0.0 | 0.00 | 0.00 | 0.00 | 77 | 1004.1 |
| 20260904043036 | 64 | 179 | 0.0 | 0.0 | 0.00 | 0.00 | 0.00 | 76 | 1004.1 |
| 20260904041530 | 65 | 179 | 0.0 | 0.0 | 0.00 | 0.00 | 0.00 | 73 | 1004.1 |
| 20260904040030 | 65 | 179 | 0.0 | 0.0 | 0.00 | 0.00 | 0.00 | 72 | 1003.8 |
| 20260904034529 | 67 | 179 | 0.0 | 0.0 | 0.00 | 0.00 | 0.00 | 69 | 1003.7 |
| 20260904033030 | 68 | 179 | 0.0 | 0.0 | 0.00 | 0.00 | 0.00 | 68 | 1003.6 |
| 20260904031536 | 69 | 179 | 0.0 | 2.0 | 0.00 | 0.00 | 0.00 | 67 | 1003.6 |
| 20260904030028 | 70 | 179 | 0.0 | 2.0 | 0.00 | 0.00 | 0.00 | 65 | 1003.4 |
| 20260904024527 | 71 | 178 | 0.0 | 2.0 | 0.00 | 0.00 | 0.00 | 63 | 1003.3 |